This demonstration page uses our WeatherBlox Daily Observations layout. Learn more.

Left ArrowRight Arrow

39.08367, -84.50855

Hourly Observations for July 24, 2020

Temp ( °F °C ) Dew Point ( °F °C ) Humidity (%) Winds ( mph kmh ) Pressure ( in mb ) Visibility ( mi km ) Precip ( " mm )
12:53 am 00:53 Mostly Cloudy with Mist and Fog 73 22.8 71 21.7 94 94 N N/A 30.09 1019 6 10 N/A
1:27 am 01:27 Mostly Clear with Mist and Fog 72 22.2 71 21.7 97 97 N N/A 30.09 1019 2 3 N/A
1:48 am 01:48 Mostly Cloudy with Mist and Fog 72 22 72 22 100 100 N N/A 30.09 1019 2 3 N/A
1:49 am 01:49 Mostly Cloudy with Mist and Fog 72 22.2 71 21.7 97 97 N N/A 30.09 1019 3 4 N/A
1:56 am 01:56 Cloudy with Mist and Fog 72 22.2 71 21.7 97 97 N N/A 30.09 1019 5 8 N/A
2:28 am 02:28 Mostly Cloudy with Mist and Fog 71 21.7 70 21.1 96 96 N N/A 30.09 1019 2 3 N/A
2:38 am 02:38 Partly Cloudy with Fog 71 21.7 70 21.1 96 96 N N/A 30.09 1019 1 1 N/A
2:46 am 02:46 Mostly Clear with Mist and Fog 71 21.7 70 21.1 96 96 N N/A 30.09 1019 2 3 N/A
2:53 am 02:53 Mostly Clear with Mist and Fog 71 21.7 71 21.7 100 100 N N/A 30.09 1019 3 4 N/A
2:56 am 02:56 Mostly Cloudy with Mist and Fog 71 21.7 70 21.1 96 96 N N/A 30.09 1019 1 2 N/A
3:06 am 03:06 Partly Cloudy with Mist and Fog 70 21.1 69 20.6 97 97 N N/A 30.09 1019 2 3 N/A
3:09 am 03:09 Mostly Cloudy with Mist and Fog 70 21.1 69 20.6 97 97 N N/A 30.09 1019 2 3 N/A
3:13 am 03:13 Mostly Cloudy with Mist and Fog 70 21.1 70 21.1 100 100 N N/A 30.09 1019 1 1 N/A
3:35 am 03:35 Mostly Cloudy with Fog 70 21.1 69 20.6 97 97 E 3 6 30.09 1019 0 0 N/A
3:49 am 03:49 Mostly Cloudy with Fog 70 21 70 21 100 100 N N/A 30.09 1019 0 0 N/A
3:53 am 03:53 Mostly Cloudy with Fog 71 21.7 70 21.1 96 96 N N/A 30.09 1019 0 0 N/A
4:10 am 04:10 Mostly Cloudy with Fog 70 21.1 70 21.1 100 100 N N/A 30.09 1019 0 0 N/A
4:28 am 04:28 Cloudy with Mist and Fog 70 21.1 69 20.6 97 97 N N/A 30.09 1019 1 2 N/A
4:44 am 04:44 Mostly Cloudy with Fog 71 21.7 70 21.1 96 96 N N/A 30.09 1019 1 1 N/A
4:53 am 04:53 Mostly Cloudy with Fog 71 21.7 70 21.1 96 96 N N/A 30.09 1019 0 0 N/A
5:05 am 05:05 Mostly Cloudy with Fog 71 21.7 70 21.1 96 96 N N/A 30.09 1019 0 0 N/A
5:53 am 05:53 Mostly Cloudy with Fog 71 21.7 70 21.1 96 96 ESE 3 6 30.10 1019 0 0 N/A
6:53 am 06:53 Mostly Cloudy with Fog 71 21.7 70 21.1 96 96 N N/A 30.11 1020 N/A N/A
7:45 am 07:45 Cloudy with Mist and Fog 72 22.2 71 21.7 97 97 N N/A 30.12 1020 1 2 N/A
7:50 am 07:50 Cloudy with Mist and Fog 72 22 72 22 100 100 N N/A 30.11 1020 3 5 N/A
7:53 am 07:53 Mostly Cloudy with Patchy Fog 72 22.2 71 21.7 97 97 N N/A 30.12 1020 2 2 N/A
8:05 am 08:05 Mostly Cloudy with Patchy Fog 72 22.2 71 21.7 97 97 N N/A 30.11 1020 2 2 N/A
8:35 am 08:35 Mostly Cloudy with Mist and Fog 73 22.8 71 21.7 94 94 N N/A 30.12 1020 4 6 N/A
8:53 am 08:53 Mostly Cloudy with Mist and Fog 74 23.3 71 21.7 91 91 N N/A 30.14 1021 5 8 N/A
9:10 am 09:10 Partly Cloudy 75 23.9 71 21.7 88 88 N N/A 30.13 1020 8 13 N/A
9:53 am 09:53 Sunny 76 24.4 71 21.7 85 85 N N/A 30.14 1021 10 16 N/A
10:53 am 10:53 Mostly Sunny 80 26.7 70 21.1 71 71 N N/A 30.14 1021 10 16 N/A
11:53 am 11:53 Mostly Sunny 82 27.8 70 21.1 67 67 SE 3 6 30.14 1021 10 16 N/A
12:53 pm 12:53 Mostly Cloudy 84 28.9 68 20 59 59 W 5 7 30.14 1021 10 16 N/A
1:53 pm 13:53 Mostly Sunny 85 29.4 66 18.9 53 53 N N/A 30.13 1020 10 16 N/A
2:53 pm 14:53 Partly Cloudy 87 30.6 63 17.2 45 45 VRB 3 6 30.11 1020 10 16 N/A
3:53 pm 15:53 Sunny 87 30.6 63 17.2 45 45 VRB 5 7 30.09 1019 10 16 N/A
4:53 pm 16:53 Sunny 87 30.6 65 18.3 48 48 W 8 13 30.07 1018 10 16 N/A
5:53 pm 17:53 Sunny 87 30.6 65 18.3 48 48 WNW 6 9 30.06 1018 10 16 N/A
6:53 pm 18:53 Partly Cloudy 86 30 63 17.2 46 46 W 6 9 30.06 1018 10 16 N/A
7:53 pm 19:53 Sunny 83 28.3 66 18.9 57 57 WSW 6 9 30.07 1018 10 16 N/A
8:53 pm 20:53 Sunny 75 23.9 70 21.1 84 84 N N/A 30.09 1019 10 16 N/A
9:53 pm 21:53 Clear 73 22.8 68 20 84 84 N N/A 30.09 1019 10 16 N/A
10:53 pm 22:53 Clear 71 21.7 67 19.4 87 87 N N/A 30.10 1019 10 16 N/A
11:53 pm 23:53 Clear 69 20.6 67 19.4 93 93 N N/A 30.11 1020 10 16 N/A

Powered by AerisWeather